Frankfurt/Main, Germany

11:54 PM CEST am 28. April 2017 (GMT +0200)
Frankfurt | | Change Station

Höhe 0 ft 50.11 °N, 8.66 °E | Updated 8 minutes ago

Teils Wolkig
Teils Wolkig
50.0 °F
gefühlte 50.0 °F
N
0.6
Wind Wechselnd Wind aus Ost
Gusts 0.6 mph

Heute
Max. -- | schwach -- °F
--% Regenrisiko
Gestern
Max. -- | schwach -- °F
Precip. -- inch
Druck 30.01 inch
Sichtweite -9999.0 Meilen
Wolken
Taupunkt 35 °F
Feuchtigkeit 56%
Regen 0.00 inch
Schneehöhe Nicht verfügbar..
6:06 AM 8:39 PM
Erstes Viertel, 9% visible
METAR EDDF 282150Z 25005KT CAVOK 09/03 Q1016 NOSIG
Druck 30.01 inch
Sichtweite -9999.0 Meilen
Wolken
Taupunkt 35 °F
Feuchtigkeit 56%
Regen 0.00 inch
Schneehöhe Nicht verfügbar..
6:06 AM 8:39 PM
Erstes Viertel, 9% visible
METAR EDDF 282150Z 25005KT CAVOK 09/03 Q1016 NOSIG

Get Severe Weather Alerts

Thanks for signing up!

Be on the lookout for a verification email in your inbox.

You'll start receiving the daily forecast at 8 AM.

×

10-Day Weather Forecast

×

Almanac

Astronomie

Apr. 28, 2017 Aufgang Untergang
Genaue Zeit
Bürgerliche Dämmerung
Nautische Dämmerung
Astronomische Dämmerung
Mond
Länge des sichtbaren Lichts
Tageslänge
Tomorrow will be .
, % of the Moon is Illuminated

Heutige Rekorde

Country Highs Country Lows

Community

WunderPhotos

WunderBlog® & News

Nearby

Luftqualität

  Luftqualität LQ Index Schadstoff
Not available.

Schneehöhe

Station Depth Höhe

Erdbebenaktivität

Stadt Distance Mag. Time & Date
Minimum magnitude displayed is 2.5.

küstennahe Wassertemperaturen

Ort Temperatur

Stations

Wetterstationen in der Umgebung

Stationsstandort Temp. Windchill Taupunkt Feuchtigkeit Wind Precip. Höhe Aktualisiert Art